Regional Weather Roundup
Issued by NWS

Home | Current Version | Previous Version | Graphics & Text | Print | Product List | Glossary On
Versions: 1 2 3 4 5 6 7 8 9 10 11 12 13 14 15 16 17 18 19 20 21 22 23 24 25 26 27 28 29 30 31 32 33 34 35 36 37 38 39 40 41 42 43 44 45 46 47 48 49 50
000
ASUS43 KLSX 040659
RWRMO

WEATHER SUMMARY FOR MISSOURI
NATIONAL WEATHER SERVICE SPRINGFIELD MO
200 AM CDT MON MAY 04 2015

NOTE: "FAIR" INDICATES FEW OR NO CLOUDS BELOW 12,000 FEET WITH NO
       SIGNIFICANT WEATHER AND/OR OBSTRUCTIONS TO VISIBILITY.
       CURRENT SKY AND/OR WEATHER CONDITIONS ARE NOT AVAILABLE FOR
       CHILLICOTHE AND FARMINGTON.

MOZ001>031-035>038-043-044-053-054-040800-
...NORTHERN AND WESTERN MISSOURI...

CITY           SKY/WX    TMP DP  RH WIND       PRES   REMARKS
KANSAS CTY INT CLOUDY    69  57  65 S13       29.93S
KANSAS C DTWN  CLOUDY    71  56  58 S8        29.94R
LEE`S SUMMIT   MOCLDY    68  55  63 SW9       29.96R
ST JOSEPH      CLOUDY    69  59  70 S9        29.90F
CHILLICOTHE      N/A     70  57  63 S6        29.93S
KIRKSVILLE     CLOUDY    70  58  65 SW9       29.93S

$$
MOZ066>068-077>081-088>096-101>105-040800-
...SOUTHWEST MISSOURI...

CITY           SKY/WX    TMP DP  RH WIND       PRES   REMARKS
SPRINGFIELD    PTCLDY    63  55  75 S8        30.01S
JOPLIN         CLEAR     67  55  65 S10       30.00R

$$
MOZ032>034-039>042-045>050-055>058-069>072-040800-
...CENTRAL MISSOURI...

CITY           SKY/WX    TMP DP  RH WIND       PRES   REMARKS
COLUMBIA       CLOUDY    63  55  75 S8        29.98F
JEFFERSON CITY CLOUDY    69  54  58 SE5       29.98F
ROLLA          CLOUDY    66  55  67 S8        30.01S
SEDALIA        CLOUDY    62  56  80 S9        29.97F
WHITEMAN AFB   CLOUDY    64  57  79 S8        29.94F
OSAGE BEACH    CLOUDY    66  54  63 S3        30.01S

$$
MOZ051-052-059>065-040800-
...EAST CENTRAL MISSOURI...

CITY           SKY/WX    TMP DP  RH WIND       PRES   REMARKS
ST LOUIS INTL  CLOUDY    73  53  49 SW13      30.00F
SPIRIT OF STL  CLOUDY    71  54  54 SW8       29.99F
ST CHARLES     CLOUDY    69  54  58 S6        29.99S

$$
MOZ072>076-082>087-097>100-106>115-040800-
...SOUTH CENTRAL AND SOUTHEAST MISSOURI...

CITY           SKY/WX    TMP DP  RH WIND       PRES   REMARKS
CAPE GIRARDEAU PTCLDY    68  50  52 S10       30.04R
FARMINGTON     CLEAR     64  52  63 SW7       30.08S
POPLAR BLUFF   CLEAR     60  53  77 CALM      30.04R
WEST PLAINS    CLEAR     64  53  67 SW5       30.06R

$$


USA.gov is the U.S. government's official web portal to all federal, state and local government web resources and services.